Regional Weather Roundup
Issued by NWS

Home | Current Version | Previous Version | Graphics & Text | Print | Product List | Glossary Off
Versions: 1 2 3 4 5 6 7 8 9 10 11 12 13 14 15 16 17 18 19 20 21 22 23 24 25 26 27 28 29 30 31 32 33 34 35 36 37 38 39 40 41 42 43 44 45 46 47 48 49 50

366
ASUS43 KLSX 191907
RWRMO

WEATHER SUMMARY FOR MISSOURI
NATIONAL WEATHER SERVICE SPRINGFIELD MO
200 PM CDT THU OCT 19 2017

NOTE: "FAIR" INDICATES FEW OR NO CLOUDS BELOW 12,000 FEET WITH NO
       SIGNIFICANT WEATHER AND/OR OBSTRUCTIONS TO VISIBILITY.
       CURRENT SKY AND/OR WEATHER CONDITIONS ARE NOT AVAILABLE FOR
       CHILLICOTHE AND FARMINGTON.

MOZ001>031-035>038-043-044-053-054-192000-
...NORTHERN AND WESTERN MISSOURI...

CITY           SKY/WX    TMP DP  RH WIND       PRES   REMARKS
KANSAS CTY INT FAIR      75  53  46 S9        30.09F
KANSAS C DTWN  FAIR      78  53  41 S9        30.08F
LEE`S SUMMIT   FAIR      78  53  41 S12       30.10F
ST JOSEPH      FAIR      77  54  44 SE9       30.06F
CHILLICOTHE      N/A     75  55  49 S8        30.10F
KIRKSVILLE     FAIR      74  56  53 S8        30.12F

$$
MOZ066>068-077>081-088>096-101>105-192000-
...SOUTHWEST MISSOURI...

CITY           SKY/WX    TMP DP  RH WIND       PRES   REMARKS
SPRINGFIELD    FAIR      78  51  38 S8        30.16F
JOPLIN         FAIR      77  53  43 SW10      30.15F
BRANSON        PTSUNNY   79  46  31 S6        30.19F

$$
MOZ032>034-039>042-045>050-055>058-069>072-192000-
...CENTRAL MISSOURI...

CITY           SKY/WX    TMP DP  RH WIND       PRES   REMARKS
COLUMBIA       FAIR      77  52  41 S10       30.14F
JEFFERSON CITY FAIR      77  49  37 W6        30.14F
ROLLA          FAIR      76  50  40 SW6       30.17F
SEDALIA        FAIR      78  53  41 SW12      30.14F
WHITEMAN AFB   SUNNY     77  53  43 SW12      30.08F
WARRENSBURG    FAIR      77  50  38 S9G16     30.11F
OSAGE BEACH    FAIR      78  50  37 W6        30.15F

$$
MOZ051-052-059>065-192000-
...EAST CENTRAL MISSOURI...

CITY           SKY/WX    TMP DP  RH WIND       PRES   REMARKS
ST LOUIS INTL  FAIR      77  51  40 CALM      30.17F
SPIRIT OF STL  FAIR      78  52  40 SW5       30.15F
ST CHARLES     FAIR      77  50  38 VRB5      30.15F

$$
MOZ072>076-082>087-097>100-106>115-192000-
...SOUTH CENTRAL AND SOUTHEAST MISSOURI...

CITY           SKY/WX    TMP DP  RH WIND       PRES   REMARKS
CAPE GIRARDEAU FAIR      77  50  38 SW8       30.19F
FARMINGTON     FAIR      78  49  35 SE6       30.18F
POPLAR BLUFF   FAIR      77  51  40 SW7       30.19F
WEST PLAINS    FAIR      77  45  32 SE5       30.20F

$$



USA.gov is the U.S. government's official web portal to all federal, state and local government web resources and services.